Novato, CA

2:42 AM PST on December 10, 2019 (GMT -0800)
Gnoss

Weather History for KDVO - October, 2019

Change the Weather History Date:

Thursday, October 3, 2019

  Actual Average (WUND) Record (WUND)
Temperature  
Mean Temperature 54 °F -  
Max Temperature 73 °F - - (-1)
Min Temperature 35 °F - - (-1)
Degree Days  
Heating Degree Days 11    
Growing Degree Days 4 (Base 50)    
Moisture  
Dew Point 42 °F    
Average Humidity 60    
Maximum Humidity 100    
Minimum Humidity 34    
Precipitation  
Precipitation 0.00 in - - ()
Sea Level Pressure  
Sea Level Pressure 29.98 in    
Wind  
Wind Speed 4 mph ()    
Max Wind Speed 18 mph    
Max Gust Speed 24 mph    
Visibility 9.4 miles    
Events Fog    
Averages and records for this station are not official NWS values.
T = Trace of Precipitation, MM = Missing Value Source: Averaged Metar Reports

Daily Weather History Graph

Daily Weather History Graph

Search for Another Location

Airport or City:

Astronomy

Oct. 03, 2019 Rise Set
Actual Time 7:07 AM PDT 6:50 PM PDT
Civil Twilight 6:41 AM PDT 7:16 PM PDT
Nautical Twilight 6:10 AM PDT 7:47 PM PDT
Astronomical Twilight 5:40 AM PDT 8:17 PM PDT
Moon 12:40 PM PDT (10/3) 10:38 PM PDT (10/3)
Length of Visible Light 12h 35m
Length of Day
11h 42m
Waxing Crescent, 31% of the Moon is Illuminated
Oct 3
Waxing Crescent
Oct 5
First Quarter
Oct 13
Full
Oct 21
Last Quarter
Oct 27
New

Hourly Weather History & Observations

Time (PDT) Temp. Dew Point Humidity Pressure Visibility Wind Dir Wind Speed Gust Speed Precip Events Conditions
12:15 AM 48.2 °F 37.4 °F 66% 29.98 in 10.0 mi Calm Calm - N/A   Clear
12:35 AM 48.2 °F 39.2 °F 71% 29.98 in 10.0 mi Calm Calm - N/A   Clear
12:55 AM 48.2 °F 42.8 °F 82% 29.98 in 10.0 mi Calm Calm - N/A   Clear
1:15 AM 48.2 °F 44.6 °F 87% 29.98 in 10.0 mi Calm Calm - N/A   Clear
1:35 AM 46.4 °F 42.8 °F 87% 29.97 in 10.0 mi Calm Calm - N/A   Clear
1:55 AM 44.6 °F 41.0 °F 87% 29.97 in 10.0 mi Calm Calm - N/A   Clear
2:15 AM 42.8 °F 37.4 °F 81% 29.97 in 10.0 mi Calm Calm - N/A   Clear
2:35 AM 42.8 °F 39.2 °F 87% 29.98 in 10.0 mi Calm Calm - N/A   Clear
2:55 AM 44.6 °F 41.0 °F 87% 29.98 in 10.0 mi Calm Calm - N/A   Clear
3:15 AM 41.0 °F 37.4 °F 87% 29.97 in 10.0 mi Calm Calm - N/A   Clear
3:35 AM 42.8 °F 39.2 °F 87% 29.97 in 10.0 mi Calm Calm - N/A   Clear
3:55 AM 44.6 °F 41.0 °F 87% 29.97 in 10.0 mi Calm Calm - N/A   Clear
4:15 AM 44.6 °F 42.8 °F 93% 29.97 in 10.0 mi Calm Calm - N/A   Clear
4:35 AM 41.0 °F 39.2 °F 93% 29.97 in 10.0 mi Calm Calm - N/A   Clear
4:55 AM 41.0 °F 39.2 °F 93% 29.98 in 10.0 mi Calm Calm - N/A   Clear
5:15 AM 44.6 °F 42.8 °F 93% 29.97 in 10.0 mi Calm Calm - N/A   Clear
5:35 AM 37.4 °F 35.6 °F 93% 29.97 in 2.5 mi Calm Calm - N/A   Clear
5:55 AM 41.0 °F 39.2 °F 93% 29.98 in 10.0 mi Calm Calm - N/A   Clear
6:15 AM 41.0 °F 39.2 °F 93% 29.98 in 10.0 mi Calm Calm - N/A   Clear
6:35 AM 42.8 °F 41.0 °F 93% 29.98 in 10.0 mi Calm Calm - N/A   Clear
6:55 AM 41.0 °F 41.0 °F 100% 29.98 in 9.0 mi Calm Calm - N/A   Clear
7:15 AM 35.6 °F 35.6 °F 100% 29.99 in 0.2 mi Calm Calm - N/A Fog Fog
7:35 AM 42.8 °F 41.0 °F 93% 29.99 in 10.0 mi Calm Calm - N/A   Clear
7:55 AM 44.6 °F 42.8 °F 93% 30.00 in 9.0 mi Calm Calm - N/A   Clear
8:15 AM 46.4 °F 44.6 °F 93% 30.00 in 10.0 mi Calm Calm - N/A   Clear
8:35 AM 50.0 °F 42.8 °F 76% 30.00 in 10.0 mi Calm Calm - N/A   Clear
8:55 AM 53.6 °F 42.8 °F 67% 30.00 in 10.0 mi Calm Calm - N/A   Clear
9:15 AM 55.4 °F 42.8 °F 63% 30.00 in 10.0 mi Calm Calm - N/A   Clear
9:35 AM 55.4 °F 42.8 °F 63% 30.01 in 10.0 mi Calm Calm - N/A   Clear
9:55 AM 57.2 °F 42.8 °F 59% 30.01 in 10.0 mi Calm Calm - N/A   Clear
10:15 AM 59.0 °F 41.0 °F 51% 30.01 in 10.0 mi East 3.5 mph - N/A   Clear
10:35 AM 62.6 °F 39.2 °F 42% 30.00 in 10.0 mi Calm Calm - N/A   Clear
10:55 AM 66.2 °F 42.8 °F 43% 30.00 in 4.0 mi Calm Calm - N/A   Haze
11:15 AM 66.2 °F 42.8 °F 43% 29.99 in 9.0 mi Variable 4.6 mph - N/A   Clear
11:35 AM 68.0 °F 44.6 °F 43% 29.98 in 3.0 mi Variable 5.8 mph - N/A   Haze
11:55 AM 68.0 °F 46.4 °F 46% 29.98 in 2.5 mi ESE 6.9 mph - N/A   Haze
12:15 PM 68.0 °F 46.4 °F 46% 29.97 in 9.0 mi ESE 8.1 mph - N/A   Clear
12:35 PM 68.0 °F 48.2 °F 49% 29.97 in 10.0 mi ESE 8.1 mph - N/A   Clear
12:55 PM 69.8 °F 46.4 °F 43% 29.97 in 10.0 mi East 8.1 mph - N/A   Clear
1:15 PM 71.6 °F 46.4 °F 41% 29.96 in 10.0 mi East 8.1 mph - N/A   Clear
1:35 PM 73.4 °F 44.6 °F 36% 29.96 in 10.0 mi SW 13.8 mph - N/A   Clear
1:55 PM 73.4 °F 44.6 °F 36% 29.95 in 10.0 mi SW 17.3 mph 23.0 mph N/A   Clear
2:15 PM 73.4 °F 46.4 °F 38% 29.95 in 10.0 mi SW 15.0 mph 21.9 mph N/A   Clear
2:35 PM 73.4 °F 44.6 °F 36% 29.94 in 10.0 mi WSW 16.1 mph 23.0 mph N/A   Clear
2:55 PM 73.4 °F 44.6 °F 36% 29.94 in 10.0 mi SW 18.4 mph - N/A   Clear
3:15 PM 71.6 °F 44.6 °F 38% 29.94 in 10.0 mi SW 16.1 mph 21.9 mph N/A   Clear
3:35 PM 71.6 °F 46.4 °F 41% 29.94 in 10.0 mi SW 16.1 mph - N/A   Clear
3:55 PM 71.6 °F 46.4 °F 41% 29.94 in 10.0 mi SW 16.1 mph - N/A   Clear
4:15 PM 71.6 °F 46.4 °F 41% 29.93 in 10.0 mi SW 16.1 mph - N/A   Clear
4:35 PM 71.6 °F 46.4 °F 41% 29.93 in 10.0 mi SW 18.4 mph - N/A   Clear
4:55 PM 71.6 °F 44.6 °F 38% 29.94 in 10.0 mi SW 16.1 mph 21.9 mph N/A   Clear
5:15 PM 69.8 °F 44.6 °F 40% 29.93 in 10.0 mi SW 13.8 mph 21.9 mph N/A   Clear
5:35 PM 69.8 °F 44.6 °F 40% 29.93 in 10.0 mi SW 13.8 mph 20.7 mph N/A   Clear
5:55 PM 68.0 °F 44.6 °F 43% 29.93 in 10.0 mi SW 17.3 mph - N/A   Clear
6:15 PM 66.2 °F 42.8 °F 43% 29.94 in 10.0 mi SSW 3.5 mph 17.3 mph N/A   Clear
6:35 PM 64.4 °F 41.0 °F 42% 29.95 in 10.0 mi Calm Calm - N/A   Clear
6:55 PM 66.2 °F 41.0 °F 40% 29.94 in 10.0 mi West 15.0 mph 23.0 mph N/A   Clear
7:15 PM 64.4 °F 41.0 °F 42% 29.95 in 10.0 mi West 18.4 mph - N/A   Clear
7:35 PM 64.4 °F 39.2 °F 40% 29.96 in 10.0 mi WNW 15.0 mph - N/A   Clear
7:55 PM 64.4 °F 37.4 °F 37% 29.97 in 10.0 mi WNW 9.2 mph 20.7 mph N/A   Clear
8:15 PM 64.4 °F 37.4 °F 37% 29.98 in 10.0 mi WNW 17.3 mph 23.0 mph N/A   Clear
8:35 PM 64.4 °F 35.6 °F 34% 29.99 in 10.0 mi WNW 15.0 mph 20.7 mph N/A   Clear
8:55 PM 64.4 °F 35.6 °F 34% 29.99 in 10.0 mi WNW 17.3 mph 24.2 mph N/A   Clear
9:15 PM 62.6 °F 35.6 °F 37% 30.00 in 10.0 mi WNW 16.1 mph 21.9 mph N/A   Clear
9:35 PM 62.6 °F 35.6 °F 37% 30.01 in 10.0 mi WNW 13.8 mph 21.9 mph N/A   Clear
9:55 PM 62.6 °F 35.6 °F 37% 30.01 in 10.0 mi WNW 9.2 mph 18.4 mph N/A   Clear
10:15 PM 60.8 °F 37.4 °F 42% 30.02 in 10.0 mi West 10.4 mph - N/A   Clear
10:35 PM 60.8 °F 37.4 °F 42% 30.02 in 10.0 mi West 10.4 mph - N/A   Clear
10:55 PM 60.8 °F 37.4 °F 42% 30.03 in 10.0 mi Variable 3.5 mph 15.0 mph N/A   Clear
11:15 PM 59.0 °F 37.4 °F 45% 30.04 in 10.0 mi Variable 4.6 mph - N/A   Clear
11:35 PM 53.6 °F 41.0 °F 62% 30.04 in 10.0 mi ENE 6.9 mph - N/A   Clear
11:55 PM 53.6 °F 41.0 °F 62% 30.05 in 10.0 mi ENE 4.6 mph - N/A   Clear